Home   Weather   Greenwich   Past weeks
Flag for USA

Past Weather in Greenwich, Illinois, USA — Yesterday and Last 2 Weeks

Now
51 °F

Overcast.


Feels Like: 46 °F
Forecast: 51 / 46 °F
Wind: 16 mph from Northwest

Location: Chicago Midway Airport

Current Time: Oct 16, 2019 at 12:36:52 pm

Latest Report: Oct 16, 2019 at 11:53 am


Visibility: 10 mi

Pressure: 29.93 "Hg

Humidity: 56%

Dew Point: 36 °F

Location of GreenwichLocation

Past Weather in Greenwich — Graph

°F

Greenwich Temperature Yesterday

Maximum temperature yesterday: 65 °F (at 3:15 pm)
Minimum temperature yesterday: 43 °F (at 3:53 am)
Average temperature yesterday: 54 °F

High & Low Weather Summary for the Past Weeks

 TemperatureHumidityPressure
High88 °F (Oct 1, 2:53 pm)100% (Oct 2, 8:41 pm)30.39 "Hg (Oct 2, 8:41 pm)
Low37 °F (Oct 12, 5:53 am)31% (Oct 7, 2:53 pm)29.69 "Hg (Oct 15, 2:53 pm)
Average58 °F68%30.02 "Hg
* Reported Oct 1 10:53 am — Oct 16 10:53 am, Greenwich. Weather by CustomWeather, © 2019

Note: Actual official high and low records may vary slightly from our data, if they occured in-between our weather recording intervals... More about our weather records

Advertising

Greenwich Weather History for the Previous 24 Hours

Scroll right to see more
 ConditionsComfort  
Time TempWeatherWind HumidityBarometerVisibility
10:53 am
Wed, Oct 16
50 °FOvercast.18 mph59%29.91 "Hg10 mi
9:53 am49 °FPartly sunny.18 mph64%29.89 "Hg10 mi
8:53 am47 °FOvercast.21 mph66%29.88 "Hg10 mi
7:53 am46 °FOvercast.14 mph71%29.85 "Hg10 mi
6:53 am46 °FOvercast.15 mph71%29.84 "Hg10 mi
5:53 am46 °FOvercast.14 mph68%29.82 "Hg10 mi
4:53 am47 °FMostly cloudy.20 mph66%29.82 "Hg10 mi
4:37 am47 °FMostly cloudy.24 mph66%29.81 "Hg10 mi
3:53 am47 °FOvercast.17 mph66%29.79 "Hg10 mi
2:53 am47 °FOvercast.14 mph66%29.80 "Hg10 mi
1:53 am46 °FPassing clouds.13 mph68%29.80 "Hg10 mi
12:53 am48 °FPassing clouds.12 mph66%29.80 "Hg10 mi
11:53 pm
Tue, Oct 15
49 °FPassing clouds.13 mph61%29.80 "Hg10 mi
10:53 pm49 °FPassing clouds.13 mph64%29.80 "Hg10 mi
9:53 pm53 °FPassing clouds.17 mph61%29.79 "Hg10 mi
8:53 pm53 °FMostly cloudy.20 mph66%29.78 "Hg10 mi
7:53 pm57 °FPartly cloudy.23 mph64%29.75 "Hg10 mi
6:53 pm60 °FPassing clouds.10 mph93%29.71 "Hg9 mi
5:53 pm62 °FBroken clouds.12 mph90%29.70 "Hg9 mi
5:39 pm62 °FBroken clouds.13 mph90%29.70 "Hg9 mi
5:05 pm62 °FLight rain. Fog.14 mph90%29.70 "Hg5 mi
3:53 pm65 °FOvercast.10 mph70%29.70 "Hg10 mi
3:15 pm65 °FPartly sunny.16 mph66%29.70 "Hg10 mi
2:53 pm64 °FBroken clouds.18 mph65%29.69 "Hg10 mi
1:53 pm61 °FOvercast.14 mph67%29.73 "Hg10 mi
12:53 pm59 °FOvercast.14 mph64%29.78 "Hg10 mi
Weather by CustomWeather, © 2019

See weather overview